Regional Weather Roundup
Issued by NWS Lake Charles, LA

Home | Current Version | Previous Version | Text Only | Print | Product List | Glossary On
Versions: 1 2 3 4 5 6 7 8 9 10 11 12 13 14 15 16 17 18 19 20 21 22 23 24 25 26 27
000
ASUS44 KLCH 202111
RWRLCH
REGIONAL WEATHER ROUNDUP
NATIONAL WEATHER SERVICE LAKE CHARLES LA
300 PM CST TUE FEB 20 2018

Note: "fair" indicates few or no clouds below 12,000 feet with no
significant weather and/or obstructions to visibility.


ACROSS SOUTHEAST TEXAS

CITY           SKY/WX    TMP DP  RH WIND       PRES   REMARKS
BEAUMONT       PTSUNNY   78  69  73 S21G32    30.01R
BEAUMONT CITY  CLOUDY    78  69  74 S18G26    30.01F
ORANGE         MOCLDY    78  72  81 S21G28    30.03F
JASPER         LGT RAIN  78  70  76 S8G17     30.01F
$$

ACROSS CENTRAL LOUISIANA

CITY           SKY/WX    TMP DP  RH WIND       PRES   REMARKS
LEESVILLE      CLOUDY    76  70  83 S13       30.01F
FULLERTON      CLOUDY    78  70  76 VRB5      30.00F
ALEXANDRIA INT FAIR      81  68  64 S20G26    30.01F
ESLER FIELD    PTSUNNY   84  67  56 S9        30.04F
DERIDDER       LGT RAIN  75  73  95 S14       30.04F
OAKDALE        CLOUDY    80  66  62 S8G18     30.05S
OPELOUSAS      CLOUDY    79  67  65 S18       30.07R
$$

ACROSS SOUTHWEST AND SOUTH CENTRAL LOUISIANA

CITY           SKY/WX    TMP DP  RH WIND       PRES   REMARKS
SULPHUR        CLOUDY    79  70  73 S25G32    30.04F
LAKE CHARLES   PTSUNNY   80  69  69 S21G31    30.03F
CHENNAULT INT  PTSUNNY   81  70  69 S22G31    30.05S
CAMERON PHI    CLEAR     72  70  94 SE14      30.05S
DEQUINCY       NOT AVBL
JENNINGS       CLOUDY    79  69  70 S17G25    30.06S
LAFAYETTE      FAIR      80  69  69 S15G24    30.08S
NEW IBERIA     PTSUNNY   80  66  62 S23       30.09S
ABBEVILLE      MOCLDY    79  72  79 SE16G26   30.08F
PATTERSON      PTSUNNY   82  69  64 S16G24    30.10F
SALT POINT       N/A     78  70  76 SE9G17    30.08F
$$

SELECTED SITES ACROSS THE REGION

CITY           SKY/WX    TMP DP  RH WIND       PRES   REMARKS
HOUSTON BUSH   CLOUDY    79  70  74 S16G28    29.95F
HOUSTON HOBBY  CLOUDY    77  72  84 S15G28    29.96F
GALVESTON      CLOUDY    72  68  87 SE17      30.00S FOG
COLLEGE STAT   LGT RAIN  72  70  93 S7        29.91F
CONROE         CLOUDY    76  72  87 SE16      29.95F
HUNTSVILLE     PTSUNNY   77  68  73 SE9G21    29.93S
LUFKIN         LGT RAIN  76  68  76 S13G18    29.95F
SHREVEPORT     CLOUDY    81  65  58 S20G29    29.94F
MONROE         PTSUNNY   84  63  49 S15G23    30.01F
NATCHEZ MS     PTSUNNY   83  62  49 S10G18    30.07
BATON ROUGE    FAIR      85  62  46 S18G28    30.08S
N.O. INTL ARPT PTSUNNY   82  71  69 S13       30.12F
SLIDELL        CLOUDY    80  69  69 SE16G23   30.13F
$$

MARINE REPORTS

STATION/POSITION TIME  SKY/WX   TEMP    WIND        PRES    VSBY
                                AIR SEA DIR/SP/G
                 (UTC)          (F)     (DEG/KT/KT) (MB)    (MI)
BUOY 30 S HIGH I 1950            67 63  140/ 10/ 12 1016.0
WVE H/P(F/S)=  4/ 8

SEA RIM ST PARK  2100            70     140/ 12/ 14 1016.7F
PORT ARTHUR      2042            74 66  170/ 13/ 20 1016.6S
SABINE PASS N    2042            68 68  140/ 13/ 16 1018.1F
TEXAS POINT      NOT AVBL
CALCASIEU PASS   2042            70 67  160/ 13/ 18 1016.1F
LK CHARLES BEACH 2042            80 65              1016.5F
MARSH ISLAND     2000            71                   N/A
FRESH WATER LOCK 2042            75 73  120/ 12/ 19 1018.5S
AMERADA PASS     2048            79 56  150/  8/ 15 1019.3F
$$




USA.gov is the U.S. government's official web portal to all federal, state and local government web resources and services.